San Diego, CA

5:16 PM PST on February 27, 2017 (GMT -0800)
San Diego International-Lindbergh

Weather History for KSAN - July, 2013

Change the Weather History Date:

Tuesday, July 23, 2013

  Actual Average Record
Temperature  
Mean Temperature 71 °F 71 °F  
Max Temperature 75 °F 75 °F 89 °F (1960)
Min Temperature 67 °F 66 °F 58 °F (1892)
Degree Days  
Heating Degree Days 0 0  
Month to date heating degree days 0 0  
Since 1 June heating degree days 15 18  
Since 1 July heating degree days 0 0  
Cooling Degree Days 6 6  
Month to date cooling degree days 137 110  
Year to date cooling degree days 261 219  
Since 1 June cooling degree days 207 170  
Growing Degree Days 22 (Base 50)    
Moisture  
Dew Point 61 °F    
Average Humidity 71    
Maximum Humidity 78    
Minimum Humidity 64    
Precipitation  
Precipitation 0.00 in 0.00 in 0.01 in (2005)
Month to date precipitation 0.04 0.02  
Year to date precipitation 3.37 7.05  
Since 1 July precipitation 0.04  
Snow  
Snow 0.00 in - - ()
Month to date snowfall 0.0  
Year to date snowfall 0.0  
Snow Depth 0.00 in    
Sea Level Pressure  
Sea Level Pressure 30.00 in    
Wind  
Wind Speed 7 mph (NW)    
Max Wind Speed 14 mph    
Max Gust Speed 18 mph    
Visibility 10 miles    
Events      
T = Trace of Precipitation, MM = Missing Value Source: NWS Daily Summary

Daily Weather History Graph

Daily Weather History Graph

Search for Another Location

Airport or City:

Trip Planner

Search our weather history database for the weather conditions in past years. The results will help you decide how hot, cold, wet, or windy it might be!

Date:

Astronomy

Jul. 23, 2013 Rise Set
Actual Time 5:56 AM PDT 7:53 PM PDT
Civil Twilight 5:29 AM PDT 8:20 PM PDT
Nautical Twilight 4:56 AM PDT 8:53 PM PDT
Astronomical Twilight 4:20 AM PDT 9:29 PM PDT
Moon 8:33 PM PDT (7/23) 7:03 AM PDT (7/23)
Length of Visible Light 14h 51m
Length of Day
13h 56m
Full, 98% of the Moon is Illuminated
Jul 23
Full
Jul 29
Last Quarter
Aug 6
New
Aug 14
First Quarter
Aug 20
Full

Hourly Weather History & Observations

Time (PDT) Temp. Dew Point Humidity Pressure Visibility Wind Dir Wind Speed Gust Speed Precip Events Conditions
12:51 AM 68.0 °F 60.1 °F 76% 29.99 in 10.0 mi West 4.6 mph - N/A   Partly Cloudy
1:51 AM 68.0 °F 60.1 °F 76% 29.99 in 10.0 mi WNW 4.6 mph - N/A   Partly Cloudy
2:31 AM 68.0 °F 60.8 °F 78% 29.98 in 10.0 mi NW 3.5 mph - N/A   Mostly Cloudy
2:51 AM 68.0 °F 61.0 °F 78% 29.98 in 10.0 mi NW 4.6 mph - N/A   Mostly Cloudy
3:51 AM 68.0 °F 61.0 °F 78% 29.99 in 10.0 mi Calm Calm - N/A   Mostly Cloudy
4:51 AM 69.1 °F 61.0 °F 75% 29.99 in 10.0 mi NNE 3.5 mph - N/A   Overcast
5:51 AM 69.1 °F 62.1 °F 78% 30.01 in 10.0 mi NW 3.5 mph - N/A   Overcast
6:51 AM 69.1 °F 62.1 °F 78% 30.01 in 10.0 mi Calm Calm - N/A   Overcast
7:51 AM 70.0 °F 61.0 °F 73% 30.03 in 10.0 mi NNE 4.6 mph - N/A   Overcast
8:19 AM 69.8 °F 60.8 °F 73% 30.03 in 10.0 mi NW 4.6 mph - N/A   Overcast
8:51 AM 71.1 °F 62.1 °F 73% 30.04 in 10.0 mi SW 4.6 mph - N/A   Mostly Cloudy
9:51 AM 71.1 °F 61.0 °F 70% 30.04 in 10.0 mi WSW 8.1 mph - N/A   Mostly Cloudy
10:51 AM 72.0 °F 62.1 °F 71% 30.05 in 10.0 mi West 12.7 mph - N/A   Mostly Cloudy
11:51 AM 73.0 °F 62.1 °F 68% 30.04 in 10.0 mi WNW 6.9 mph - N/A   Mostly Cloudy
12:05 PM 73.4 °F 62.6 °F 69% 30.03 in 10.0 mi WNW 11.5 mph - N/A   Scattered Clouds
12:51 PM 73.9 °F 62.1 °F 66% 30.02 in 10.0 mi WNW 10.4 mph - N/A   Scattered Clouds
1:51 PM 73.9 °F 61.0 °F 64% 30.01 in 10.0 mi West 10.4 mph - N/A   Scattered Clouds
2:51 PM 73.0 °F 61.0 °F 66% 30.00 in 10.0 mi NW 11.5 mph - N/A   Scattered Clouds
3:51 PM 73.0 °F 61.0 °F 66% 29.98 in 10.0 mi WNW 11.5 mph - N/A   Scattered Clouds
4:51 PM 72.0 °F 61.0 °F 68% 29.98 in 10.0 mi WNW 10.4 mph - N/A   Scattered Clouds
5:51 PM 71.1 °F 60.1 °F 68% 29.96 in 10.0 mi WNW 12.7 mph - N/A   Scattered Clouds
6:51 PM 70.0 °F 60.1 °F 71% 29.96 in 10.0 mi WNW 10.4 mph - N/A   Scattered Clouds
7:43 PM 69.8 °F 60.8 °F 73% 29.97 in 10.0 mi WNW 8.1 mph - N/A   Mostly Cloudy
7:51 PM 70.0 °F 61.0 °F 73% 29.97 in 10.0 mi WNW 8.1 mph - N/A   Mostly Cloudy
8:34 PM 69.8 °F 60.8 °F 73% 29.97 in 10.0 mi WNW 8.1 mph - N/A   Mostly Cloudy
8:51 PM 69.1 °F 61.0 °F 75% 29.98 in 10.0 mi NW 6.9 mph - N/A   Mostly Cloudy
9:11 PM 69.8 °F 60.8 °F 73% 29.98 in 10.0 mi NNW 6.9 mph - N/A   Scattered Clouds
9:51 PM 68.0 °F 62.1 °F 81% 29.99 in 10.0 mi NW 5.8 mph - N/A   Scattered Clouds
9:58 PM 69.8 °F 62.6 °F 78% 29.99 in 10.0 mi NW 6.9 mph - N/A   Mostly Cloudy
10:47 PM 69.8 °F 60.8 °F 73% 29.99 in 10.0 mi NNW 6.9 mph - N/A   Scattered Clouds
10:51 PM 70.0 °F 61.0 °F 73% 29.99 in 10.0 mi North 8.1 mph - N/A   Scattered Clouds
11:30 PM 69.8 °F 60.8 °F 73% 29.99 in 10.0 mi NW 5.8 mph - N/A   Mostly Cloudy
11:51 PM 69.1 °F 61.0 °F 75% 29.99 in 10.0 mi NNW 6.9 mph - N/A   Mostly Cloudy